Theta_e
328 325 326 330 331 333 335 335 339 340 340 340 342 343 342 342 341 340 340 340 340 341 342 342 343 344 348 346 348 348 348 348 346
325 327 327 329 331 333 336 337 338 341 340 341 341 343 343 341 343 343 341 340 341 341 342 345 345 345 346 348 346 349 348 347 347
325 327 328 326 331 332 335 338 339 340 342 341 341 343 343 343 342 346 344 342 341 342 343 344 345 345 346 348 347 348 347 346 348
323 325 327 329 331 333 335 338 338 339 342 341 342 342 342 343 342 343 345 343 342 342 344 346 345 344 346 347 345 348 348 346 346
324 328 329 330 331 332 334 336 336 337 340 342 342 344 343 342 343 343 343 344 344 346 345 346 346 346 347 346 345 345 346 346 350
321 324 325 329 329 330 334 336 336 338 341 343 344 345 343 343 343 343 342 343 344 345 346 345 346 346 346 345 345 347 347 347 347
320 324 327 325 327 328 330 334 338 340 343 346 345 344 344 343 344 344 344 343 344 344 344 344 345 346 347 347 347 348 347 347 345
324 323 323 325 326 326 328 330 332 339 340 345 346 344 343 343 344 343 343 341 344 345 344 344 345 346 346 347 347 347 345 346 346
322 323 324 324 326 326 327 331 333 334 338 340 344 343 342 340 338 340 342 342 342 344 344 344 344 343 345 343 344 333 335 341 343
320 321 320 321 322 324 325 330 332 334 334 336 339 341 341 337 336 334 337 340 341 343 343 343 341 341 342 337 328 328 331 335 335
321 321 317 318 318 320 321 324 328 330 335 334 337 339 339 339 336 335 337 336 339 340 341 341 340 338 330 325 320 321 323 332 333
320 321 318 319 324 324 324 328 327 331 333 334 335 336 336 337 339 335 334 336 339 341 337 335 337 330 324 320 316 320 321 327 334
320 322 323 321 322 323 323 325 327 326 328 328 330 333 335 336 335 336 337 340 340 338 338 329 326 322 320 320 322 319 321 329 335
321 321 321 321 321 317 320 322 326 323 328 327 329 328 335 333 334 334 333 332 331 328 325 322 320 317 317 316 317 316 316 318 329
320 318 319 320 319 319 320 322 325 326 326 328 328 328 328 334 332 328 326 324 324 323 320 318 315 313 312 313 314 313 312 312 314
318 317 318 319 319 318 319 321 326 324 325 328 326 326 325 324 323 323 322 321 319 318 317 316 315 314 313 313 314 315 312 311 312
317 316 316 316 318 317 317 320 323 324 325 326 325 323 322 321 318 319 322 322 321 320 319 317 316 315 314 315 316 315 315 313 308
316 315 316 316 315 316 317 320 321 324 324 323 322 322 321 319 318 316 312 304 309 316 311 317 318 316 316 315 313 312 308 302 301
317 314 314 314 316 317 319 320 321 322 323 323 322 321 320 319 318 315 314 312 306 301 302 304 303 305 311 308 305 298 296 295 295
312 310 312 315 317 318 317 318 318 321 322 323 322 319 319 319 317 317 315 316 315 308 301 298 299 298 300 301 297 295 294 293 295
Wind_Speed
8 9 12 12 17 16 14 15 15 15 14 13 12 12 10 8 8 6 6 6 5 4 4 5 5 6 5 7 5 5 4 2 3
7 7 12 14 14 17 16 15 14 15 15 16 14 13 10 9 8 8 7 8 5 5 5 4 5 6 6 6 6 6 6 4 5
6 8 9 8 9 14 15 13 15 17 16 17 13 13 12 10 9 8 8 6 7 7 6 6 6 6 6 6 6 6 5 4 4
4 5 6 8 7 5 10 14 15 16 14 14 14 13 12 11 10 9 8 8 8 7 6 7 6 6 7 6 6 6 5 6 5
4 8 6 5 4 4 4 7 7 9 14 15 16 12 13 13 10 10 10 10 9 7 7 6 7 6 6 6 6 6 7 6 6
3 5 6 6 6 6 6 6 7 10 10 12 10 7 6 9 10 12 13 11 9 7 7 8 6 6 6 6 6 6 6 6 6
3 4 4 4 5 7 6 6 7 9 9 10 9 8 12 14 13 13 12 9 8 7 7 8 7 7 7 7 6 6 6 6 6
5 3 1 1 0 3 4 5 3 3 5 11 13 14 16 13 12 10 7 7 9 9 7 8 7 8 7 6 5 4 5 5 5
5 4 4 0 3 4 3 4 5 4 6 9 8 13 14 11 8 8 9 8 9 8 9 8 6 6 6 6 4 2 2 4 4
2 2 3 4 4 4 5 5 4 4 4 4 9 12 13 13 10 8 7 7 6 10 11 8 8 7 6 5 4 5 5 5 3
5 4 2 3 3 5 6 6 6 6 5 6 9 10 12 15 13 10 7 5 7 7 7 10 7 6 6 6 4 2 2 2 4
6 5 3 3 4 3 5 6 7 6 6 7 9 12 12 11 12 11 11 11 10 8 7 5 6 6 7 6 3 2 2 2 3
6 6 4 3 3 3 3 5 7 5 5 6 8 11 13 12 11 12 11 9 9 7 8 8 8 8 8 7 3 5 3 6 4
3 2 3 3 1 3 4 5 6 4 5 9 9 13 14 11 9 6 5 6 7 10 11 11 9 10 7 6 5 6 8 7 4
4 4 1 1 1 2 3 4 1 3 5 7 8 11 9 9 11 8 6 10 10 10 13 12 8 9 8 5 4 6 11 14 14
3 3 2 2 2 1 2 2 2 4 2 5 7 8 18 13 13 10 10 10 12 11 10 11 9 4 8 5 3 5 11 14 12
3 2 1 0 1 2 1 2 3 0 3 6 6 9 12 11 12 12 8 9 8 9 9 10 8 5 8 5 4 6 7 3 4
3 3 2 3 3 2 3 3 4 4 5 8 6 7 7 8 9 11 9 10 8 8 6 6 9 5 6 6 4 3 6 4 2
4 3 3 4 4 5 5 4 5 4 6 6 7 6 5 5 6 5 7 7 8 16 11 15 14 12 6 3 9 9 8 9 8
4 3 2 3 3 3 4 6 5 4 5 6 8 5 4 4 5 5 5 7 6 8 8 14 13 11 9 8 9 10 10 7 3
Wind_Direction
180 169 192 182 180 184 187 191 190 191 192 194 187 192 194 192 190 186 192 197 196 213 201 211 189 205 218 218 214 219 221 197 205
185 185 190 197 179 185 185 187 188 198 194 201 186 197 194 193 189 188 197 197 193 201 207 219 221 212 214 209 217 213 197 214 224
216 189 187 196 182 183 194 187 179 211 204 200 195 193 202 198 191 196 197 190 200 200 210 221 224 219 221 204 204 218 206 222 239
5 233 185 199 188 173 185 192 213 212 200 193 206 197 197 203 200 197 201 200 201 197 200 215 225 212 202 206 206 212 211 225 235
59 104 100 85 117 95 154 210 207 211 209 191 203 188 215 204 198 198 203 208 210 188 201 204 209 207 200 204 215 219 214 218 216
58 116 132 153 150 159 165 170 190 200 204 211 198 189 197 218 208 203 208 212 210 195 187 187 190 194 206 209 215 219 225 220 224
155 97 121 158 176 197 206 194 180 175 177 168 181 184 193 220 216 211 211 202 198 202 200 193 193 197 211 208 208 220 213 221 225
151 156 86 52 198 247 234 217 218 243 225 189 187 188 207 214 208 207 200 192 202 205 200 211 200 200 202 205 199 216 215 219 231
178 176 141 349 359 28 350 284 282 243 222 221 213 206 198 178 182 205 193 194 199 203 212 209 200 208 212 178 182 179 244 226 229
254 239 118 80 33 11 28 8 326 305 262 227 215 216 202 175 172 204 184 180 186 204 207 194 198 198 194 158 128 106 108 126 136
221 213 185 81 33 4 347 333 337 325 305 260 233 221 204 191 176 190 180 216 216 207 191 191 181 161 139 134 96 67 350 190 158
199 179 142 13 22 42 331 324 351 347 343 306 256 242 230 224 214 188 182 199 205 204 167 141 140 128 126 125 105 296 236 217 159
156 148 118 95 359 331 304 327 324 332 345 328 327 252 230 222 212 210 214 198 181 154 146 124 119 116 111 131 155 21 311 225 148
115 90 125 132 162 287 301 302 289 354 343 343 331 319 217 196 186 137 127 123 131 132 126 114 113 108 97 89 82 64 69 57 82
128 121 121 240 209 235 304 294 168 48 359 351 344 4 42 184 138 116 111 111 107 119 114 113 113 108 88 70 80 78 69 69 73
97 129 191 238 242 167 302 310 163 104 330 17 357 14 63 55 70 83 103 109 100 98 106 113 103 114 105 101 84 73 71 64 63
99 97 47 293 150 112 65 11 67 163 91 37 10 35 55 65 57 58 54 98 95 108 104 108 108 128 114 112 106 99 62 58 68
105 95 67 65 63 80 65 43 59 53 80 87 47 33 49 66 75 77 70 45 36 63 58 82 120 109 98 101 100 109 113 132 99
126 112 85 70 82 76 61 61 68 61 82 105 99 72 55 60 76 60 73 72 62 35 61 80 86 86 99 79 100 114 107 72 33
116 104 90 80 82 79 95 85 80 83 96 107 100 92 82 78 87 90 89 99 97 96 35 53 62 87 102 103 125 84 68 54 62